Soldotna, AK

12:56 PM AKDT on March 24, 2017 (GMT -0800)
Soldotna

Weather History for PASX - December, 2011

Change the Weather History Date:

Monday, December 5, 2011

  Actual Average Record
Temperature  
Mean Temperature 29 °F -  
Max Temperature 32 °F 23 °F 39 °F (1969)
Min Temperature 26 °F 8 °F -27 °F (1975)
Degree Days  
Heating Degree Days 36    
Moisture  
Dew Point 18 °F    
Average Humidity 63    
Maximum Humidity 75    
Minimum Humidity 51    
Precipitation  
Precipitation 0.00 in - - ()
Sea Level Pressure  
Sea Level Pressure 30.11 in    
Wind  
Wind Speed 12 mph (SW)    
Max Wind Speed 20 mph    
Max Gust Speed 28 mph    
Visibility 10 miles    
Events      
Averages and records for this station are not official NWS values.
T = Trace of Precipitation, MM = Missing Value Source: NWS Daily Summary

Daily Weather History Graph

Daily Weather History Graph

Search for Another Location

Airport or City:

Trip Planner

Search our weather history database for the weather conditions in past years. The results will help you decide how hot, cold, wet, or windy it might be!

Date:

Astronomy

Dec. 05, 2011 Rise Set
Actual Time 9:51 AM AKST 3:58 PM AKST
Civil Twilight 8:54 AM AKST 4:55 PM AKST
Nautical Twilight 7:57 AM AKST 5:51 PM AKST
Astronomical Twilight 7:05 AM AKST 6:43 PM AKST
Moon 1:51 PM AKST (12/5) 4:26 AM AKST (12/5)
Length of Visible Light 8h 00m
Length of Day
6h 07m
Waxing Gibbous, 81% of the Moon is Illuminated
Dec 5
Waxing Gibbous
Dec 10
Full
Dec 17
Last Quarter
Dec 24
New
Dec 31
First Quarter

Hourly Weather History & Observations

Time (AKST) Temp. Windchill Dew Point Humidity Pressure Visibility Wind Dir Wind Speed Gust Speed Precip Events Conditions
12:16 AM 32.0 °F 23.6 °F 17.6 °F 55% 29.93 in 10.0 mi SSW 10.4 mph 16.1 mph N/A   Clear
12:36 AM 32.0 °F 24.2 °F 19.4 °F 60% 29.94 in 10.0 mi WSW 9.2 mph 17.3 mph N/A   Clear
12:56 AM 32.0 °F 23.6 °F 19.4 °F 60% 29.95 in 10.0 mi SW 10.4 mph 18.4 mph N/A   Clear
1:16 AM 32.0 °F 22.5 °F 19.4 °F 60% 29.96 in 10.0 mi WSW 12.7 mph 25.3 mph N/A   Clear
1:36 AM 30.2 °F 17.8 °F 19.4 °F 64% 29.96 in 10.0 mi SW 19.6 mph 27.6 mph N/A   Clear
2:16 AM 30.2 °F 20.2 °F 19.4 °F 64% 29.98 in 10.0 mi SW 12.7 mph - N/A   Clear
2:36 AM 30.2 °F 19.3 °F 17.6 °F 60% 29.99 in 10.0 mi WSW 15.0 mph 21.9 mph N/A   Clear
2:56 AM 30.2 °F 20.2 °F 17.6 °F 60% 29.99 in 10.0 mi SW 12.7 mph 19.6 mph N/A   Clear
3:16 AM 30.2 °F 20.2 °F 15.8 °F 55% 30.00 in 10.0 mi SW 12.7 mph 18.4 mph N/A   Clear
3:36 AM 30.2 °F 20.2 °F 15.8 °F 55% 30.01 in 10.0 mi WSW 12.7 mph 16.1 mph N/A   Clear
3:56 AM 30.2 °F 20.2 °F 15.8 °F 55% 30.01 in 10.0 mi WSW 12.7 mph 18.4 mph N/A   Clear
4:16 AM 30.2 °F 19.3 °F 15.8 °F 55% 30.01 in 10.0 mi WSW 15.0 mph 20.7 mph N/A   Clear
4:36 AM 30.2 °F 18.9 °F 15.8 °F 55% 30.01 in 10.0 mi WSW 16.1 mph 20.7 mph N/A   Clear
4:56 AM 30.2 °F 18.1 °F 15.8 °F 55% 30.02 in 10.0 mi WSW 18.4 mph 24.2 mph N/A   Clear
5:16 AM 30.2 °F 18.9 °F 15.8 °F 55% 30.02 in 10.0 mi WSW 16.1 mph 21.9 mph N/A   Clear
5:36 AM 30.2 °F 19.8 °F 14.0 °F 51% 30.03 in 10.0 mi WSW 13.8 mph 19.6 mph N/A   Clear
5:56 AM 30.2 °F 20.8 °F 15.8 °F 55% 30.03 in 10.0 mi WSW 11.5 mph - N/A   Clear
6:16 AM 28.4 °F 18.0 °F 15.8 °F 59% 30.03 in 10.0 mi WSW 12.7 mph - N/A   Clear
6:36 AM 28.4 °F 18.5 °F 17.6 °F 64% 30.04 in 10.0 mi SW 11.5 mph - N/A   Clear
6:56 AM 28.4 °F 18.5 °F 15.8 °F 59% 30.04 in 10.0 mi SW 11.5 mph 18.4 mph N/A   Clear
7:16 AM 28.4 °F 19.7 °F 15.8 °F 59% 30.05 in 10.0 mi SW 9.2 mph - N/A   Clear
7:36 AM 26.6 °F 18.2 °F 15.8 °F 64% 30.06 in 10.0 mi SSW 8.1 mph - N/A   Clear
7:56 AM 26.6 °F 18.2 °F 15.8 °F 64% 30.07 in 10.0 mi SSW 8.1 mph - N/A   Clear
8:16 AM 26.6 °F 19.1 °F 17.6 °F 69% 30.08 in 10.0 mi SSW 6.9 mph - N/A   Clear
8:36 AM 26.6 °F 17.5 °F 15.8 °F 64% 30.09 in 10.0 mi SSW 9.2 mph - N/A   Clear
8:56 AM 26.6 °F 18.2 °F 15.8 °F 64% 30.10 in 10.0 mi SSW 8.1 mph - N/A   Clear
9:16 AM 26.6 °F 19.1 °F 17.6 °F 69% 30.10 in 10.0 mi SW 6.9 mph - N/A   Clear
9:36 AM 26.6 °F 19.1 °F 17.6 °F 69% 30.11 in 10.0 mi SW 6.9 mph - N/A   Clear
9:56 AM 26.6 °F 15.7 °F 19.4 °F 74% 30.11 in 10.0 mi SW 12.7 mph - N/A   Clear
10:16 AM 28.4 °F 19.1 °F 19.4 °F 69% 30.12 in 10.0 mi SW 10.4 mph - N/A   Clear
10:36 AM 28.4 °F 18.0 °F 21.2 °F 74% 30.13 in 10.0 mi SW 12.7 mph - N/A   Clear
10:56 AM 28.4 °F 17.5 °F 21.2 °F 74% 30.14 in 10.0 mi SW 13.8 mph 19.6 mph N/A   Clear
11:16 AM 28.4 °F 17.5 °F 21.2 °F 74% 30.15 in 10.0 mi SW 13.8 mph - N/A   Clear
11:36 AM 28.4 °F 18.5 °F 21.2 °F 74% 30.15 in 10.0 mi SW 11.5 mph - N/A   Clear
11:56 AM 30.2 °F 22.6 °F 23.0 °F 75% 30.16 in 10.0 mi SSW 8.1 mph - N/A   Clear
12:16 PM 30.2 °F 24.3 °F 21.2 °F 69% 30.17 in 10.0 mi SSW 5.8 mph - N/A   Clear
12:36 PM 30.2 °F 19.8 °F 21.2 °F 69% 30.17 in 10.0 mi WSW 13.8 mph 19.6 mph N/A   Clear
12:56 PM 30.2 °F 19.3 °F 21.2 °F 69% 30.18 in 10.0 mi WSW 15.0 mph 19.6 mph N/A   Clear
1:16 PM 30.2 °F 19.3 °F 19.4 °F 64% 30.19 in 10.0 mi WSW 15.0 mph 24.2 mph N/A   Clear
1:36 PM 32.0 °F 23.0 °F 17.6 °F 55% 30.20 in 10.0 mi WSW 11.5 mph 16.1 mph N/A   Clear
1:56 PM 32.0 °F 25.6 °F 15.8 °F 51% 30.20 in 10.0 mi SSW 6.9 mph - N/A   Clear
2:16 PM 30.2 °F 22.6 °F 19.4 °F 64% 30.21 in 10.0 mi SW 8.1 mph - N/A   Clear
2:36 PM 30.2 °F 20.8 °F 17.6 °F 60% 30.21 in 10.0 mi WSW 11.5 mph 20.7 mph N/A   Clear
2:56 PM 30.2 °F 20.2 °F 19.4 °F 64% 30.23 in 10.0 mi WSW 12.7 mph - N/A   Clear
3:16 PM 30.2 °F 24.3 °F 17.6 °F 60% 30.23 in 10.0 mi SW 5.8 mph - N/A   Clear
3:36 PM 30.2 °F 23.4 °F 17.6 °F 60% 30.24 in 10.0 mi South 6.9 mph - N/A   Clear
3:56 PM 30.2 °F 21.3 °F 17.6 °F 60% 30.24 in 10.0 mi SW 10.4 mph - N/A   Clear
4:16 PM 30.2 °F 20.8 °F 19.4 °F 64% 30.25 in 10.0 mi SW 11.5 mph 18.4 mph N/A   Clear
4:36 PM 30.2 °F 19.8 °F 19.4 °F 64% 30.26 in 10.0 mi SW 13.8 mph 21.9 mph N/A   Clear
4:56 PM 30.2 °F 20.8 °F 19.4 °F 64% 30.26 in 10.0 mi SW 11.5 mph 20.7 mph N/A   Clear
5:16 PM 30.2 °F 20.2 °F 19.4 °F 64% 30.28 in 10.0 mi SSW 12.7 mph 19.6 mph N/A   Clear
5:36 PM 28.4 °F 17.0 °F 19.4 °F 69% 30.28 in 10.0 mi SSW 15.0 mph 23.0 mph N/A   Clear
5:56 PM 28.4 °F 17.0 °F 19.4 °F 69% 30.29 in 10.0 mi SW 15.0 mph 21.9 mph N/A   Clear
6:16 PM 28.4 °F 17.5 °F 19.4 °F 69% 30.29 in 10.0 mi SW 13.8 mph 18.4 mph N/A   Clear
6:36 PM 28.4 °F 19.7 °F 19.4 °F 69% 30.30 in 10.0 mi SSW 9.2 mph - N/A   Clear
6:56 PM 28.4 °F 19.7 °F 19.4 °F 69% 30.31 in 10.0 mi SW 9.2 mph 16.1 mph N/A   Clear
7:16 PM 28.4 °F 18.0 °F 19.4 °F 69% 30.31 in 10.0 mi SW 12.7 mph 16.1 mph N/A   Clear
7:36 PM 28.4 °F 17.5 °F 19.4 °F 69% 30.31 in 10.0 mi SW 13.8 mph - N/A   Clear
7:56 PM 28.4 °F 18.5 °F 19.4 °F 69% 30.32 in 10.0 mi SSW 11.5 mph - N/A   Clear
8:16 PM 28.4 °F 18.0 °F 19.4 °F 69% 30.33 in 10.0 mi SSW 12.7 mph 17.3 mph N/A   Clear
8:36 PM 28.4 °F 18.0 °F 21.2 °F 74% 30.34 in 10.0 mi SW 12.7 mph 21.9 mph N/A   Scattered Clouds
8:56 PM 28.4 °F 19.7 °F 21.2 °F 74% 30.35 in 10.0 mi SSW 9.2 mph 17.3 mph N/A   Partly Cloudy
9:16 PM 28.4 °F 19.7 °F 19.4 °F 69% 30.35 in 10.0 mi SSW 9.2 mph - N/A   Mostly Cloudy
9:36 PM 28.4 °F 22.2 °F 21.2 °F 74% 30.37 in 10.0 mi SSW 5.8 mph - N/A   Overcast
9:56 PM 28.4 °F 21.2 °F 21.2 °F 74% 30.37 in 10.0 mi SSW 6.9 mph - N/A   Overcast
10:16 PM 30.2 °F 21.9 °F 21.2 °F 69% 30.38 in 10.0 mi SW 9.2 mph - N/A   Overcast
10:36 PM 30.2 °F 24.3 °F 21.2 °F 69% 30.37 in 10.0 mi South 5.8 mph - N/A   Overcast
10:56 PM 30.2 °F 24.3 °F 23.0 °F 75% 30.37 in 10.0 mi SSW 5.8 mph - N/A   Mostly Cloudy
11:36 PM 30.2 °F 21.9 °F 23.0 °F 75% 30.37 in 10.0 mi South 9.2 mph - N/A   Scattered Clouds
11:56 PM 30.2 °F 23.4 °F 24.8 °F 80% 30.37 in 10.0 mi SSW 6.9 mph - N/A   Partly Cloudy